Terminal Aerodrome Forecast
Issued by NWS Sioux Falls, SD

Home | Current Version | Previous Version | Text Only | Print | Product List | Glossary On
Versions: 1 2 3 4 5 6 7 8 9 10 11 12 13 14 15 16 17 18 19 20 21 22 23 24 25
000
FTUS43 KFSD 260520
TAFSUX
TAF
KSUX 260520Z 2606/2706 36010KT P6SM SCT010 BKN060
     FM260700 36012KT P6SM BKN015 OVC040
     FM261400 35014KT 5SM -SN OVC012
     FM262200 36011KT 2SM -SN OVC010=

USA.gov is the U.S. government's official web portal to all federal, state and local government web resources and services.